EW4327 Weather Reports


time (UTC)temp
C
wind
direction
speed
KPH
gust
KPH
rain 1hr
cm
rain 24hr
cm
rain mn
cm
humidity
%
barometer
mb
20190418150221 18 137 11.3 22.5 0.00 0.00 0.00 33 1025.7
20190418144701 18 87 16.1 27.4 0.00 0.00 0.00 34 1025.7
20190418143209 18 62 8.0 29.0 0.00 0.00 0.00 33 1025.7
20190418141720 18 150 8.0 27.4 0.00 0.00 0.00 34 1025.7
20190418140136 18 120 8.0 24.1 0.00 0.00 0.00 35 1025.7
20190418134703 18 77 9.7 30.6 0.00 0.00 0.00 37 1025.7
20190418133242 18 59 14.5 27.4 0.00 0.00 0.00 36 1025.8
20190418131611 18 84 8.0 20.9 0.00 0.00 0.00 38 1025.8
20190418130255 18 89 16.1 30.6 0.00 0.00 0.00 37 1025.8
20190418124622 18 132 14.5 25.7 0.00 0.00 0.00 38 1025.9
20190418123108 18 99 12.9 29.0 0.00 0.00 0.00 39 1025.9
20190418121635 18 111 11.3 27.4 0.00 0.00 0.00 40 1025.9
20190418120129 17 120 11.3 29.0 0.00 0.00 0.00 40 1026.0
20190418114605 17 89 14.5 32.2 0.00 0.00 0.00 41 1026.2
20190418113130 17 92 12.9 27.4 0.00 0.00 0.00 40 1026.2
20190418111557 17 93 11.3 29.0 0.00 0.00 0.00 43 1026.1
20190418110046 17 103 14.5 24.1 0.00 0.00 0.00 43 1026.3
20190418104709 17 105 16.1 27.4 0.00 0.00 0.00 44 1026.2
20190418103118 16 124 14.5 22.5 0.00 0.00 0.00 49 1026.4
20190418101553 15 103 6.4 22.5 0.00 0.00 0.00 51 1026.6
20190418100119 15 138 11.3 30.6 0.00 0.00 0.00 48 1026.6
20190418094610 15 27 14.5 27.4 0.00 0.00 0.00 49 1026.7
20190418093108 15 355 11.3 19.3 0.00 0.00 0.00 51 1026.7
20190418091557 15 131 9.7 30.6 0.00 0.00 0.00 52 1026.8
20190418090111 15 90 8.0 24.1 0.00 0.00 0.00 50 1026.9
20190418084519 15 143 11.3 20.9 0.00 0.00 0.00 51 1027.0
20190418083018 14 69 11.3 20.9 0.00 0.00 0.00 54 1027.0
20190418081512 13 67 6.4 14.5 0.00 0.00 0.00 58 1027.0
20190418080025 12 128 6.4 14.5 0.00 0.00 0.00 61 1027.1
20190418074645 11 89 4.8 11.3 0.00 0.00 0.00 66 1027.0
20190418073150 10 86 4.8 12.9 0.00 0.00 0.00 67 1027.0
20190418071643 10 78 4.8 11.3 0.00 0.00 0.00 69 1027.0
20190418070113 9 44 4.8 16.1 0.00 0.00 0.00 69 1026.9
20190418064715 8 93 8.0 14.5 0.00 0.00 0.00 70 1026.9
20190418063141 8 81 8.0 17.7 0.00 0.00 0.00 71 1026.9
20190418061700 7 104 6.4 12.9 0.00 0.00 0.00 74 1026.9
20190418060116 6 93 3.2 9.7 0.00 0.00 0.00 77 1026.9
20190418054637 7 83 0.0 4.8 0.00 0.00 0.00 74 1026.8
20190418053201 7 78 0.0 4.8 0.00 0.00 0.00 72 1026.8
20190418051639 7 62 0.0 6.4 0.00 0.00 0.00 71 1026.7
20190418050127 7 63 3.2 11.3 0.00 0.00 0.00 74 1026.6
20190418044558 6 90 3.2 9.7 0.00 0.00 0.00 75 1026.4
20190418043242 6 88 3.2 11.3 0.00 0.00 0.00 75 1026.2
20190418041622 6 87 4.8 9.7 0.00 0.00 0.00 75 1026.2
20190418040035 6 65 4.8 9.7 0.00 0.00 0.00 76 1026.1
20190418034600 6 103 3.2 8.0 0.00 0.00 0.00 76 1026.1
20190418033146 6 71 3.2 8.0 0.00 0.00 0.00 79 1026.1
20190418031549 5 84 0.0 3.2 0.00 0.00 0.00 78 1026.1
20190418030127 5 84 0.0 3.2 0.00 0.00 0.00 79 1026.1
20190418024534 5 84 1.6 6.4 0.00 0.00 0.00 78 1026.1
20190418023058 6 95 3.2 4.8 0.00 0.00 0.00 77 1026.1
20190418021553 6 98 0.0 1.6 0.00 0.00 0.00 77 1025.9
20190418020028 6 98 0.0 3.2 0.00 0.00 0.00 77 1025.9
20190418014529 6 98 0.0 4.8 0.00 0.00 0.00 76 1025.8
20190418013028 6 79 1.6 3.2 0.00 0.00 0.00 74 1025.8
20190418011533 7 79 1.6 3.2 0.00 0.00 0.00 72 1025.9
20190418010011 7 76 0.0 6.4 0.00 0.00 0.00 73 1025.9
20190418003030 7 89 1.6 4.8 0.00 0.00 0.00 71 1026.1
20190417214511 10 123 3.2 12.9 0.00 0.00 0.00 59 1025.7
20190417204750 11 81 8.0 17.7 0.00 0.00 0.00 53 1025.6
20190417203232 11 80 11.3 17.7 0.00 0.00 0.00 52 1025.6
20190417201657 11 76 6.4 12.9 0.00 0.00 0.00 52 1025.5
20190417200159 11 84 8.0 14.5 0.00 0.00 0.00 50 1025.5
20190417194735 12 75 3.2 14.5 0.00 0.00 0.00 46 1025.4
20190417193206 11 82 6.4 9.7 0.00 0.00 0.00 44 1025.3
20190417191713 12 96 3.2 9.7 0.00 0.00 0.00 40 1025.2
20190417190151 12 103 4.8 16.1 0.00 0.00 0.00 39 1025.0
20190417184738 12 96 6.4 14.5 0.00 0.00 0.00 36 1024.8
20190417183216 13 89 3.2 12.9 0.00 0.00 0.00 33 1024.7
20190417181631 13 92 3.2 14.5 0.00 0.00 0.00 32 1024.5
20190417180126 14 90 4.8 12.9 0.00 0.00 0.00 31 1024.2
20190417174648 15 84 6.4 12.9 0.00 0.00 0.00 29 1024.1
20190417173112 15 64 6.4 20.9 0.00 0.00 0.00 27 1024.0
20190417171728 15 97 4.8 12.9 0.00 0.00 0.00 27 1023.9
20190417170107 16 98 8.0 17.7 0.00 0.00 0.00 25 1023.9
20190417164632 16 96 4.8 14.5 0.00 0.00 0.00 26 1023.8
20190417163112 16 45 9.7 16.1 0.00 0.00 0.00 25 1023.8
20190417161728 16 101 4.8 16.1 0.00 0.00 0.00 26 1023.6
20190417160139 17 49 11.3 17.7 0.00 0.00 0.00 26 1023.6
20190417154553 17 85 9.7 19.3 0.00 0.00 0.00 26 1023.5
20190417153126 17 57 8.0 17.7 0.00 0.00 0.00 28 1023.5
20190417151658 17 31 6.4 17.7 0.00 0.00 0.00 29 1023.3